Location: Bergnerzell
(49.1816°N, 10.2565°E)
Time: 04:20:28
(UTC+00:00)

Cosmos 1825 - Pass Details

Date: 13 August 2024
Orbit: 422 x 426 km, 82.5° (Epoch: 09 September)

Event Time Altitude Azimuth Distance (km) Brightness Sun altitude
Rises 01:19:54 0° 7° (N) 2,411 6.8 -21.3°
Reaches altitude 10° 01:22:52 10° 37° (NE) 1,532 5.8 -21.0°
Maximum altitude 01:24:31 13° 66° (ENE) 1,353 5.0 -20.9°
Drops below altitude 10° 01:26:08 10° 96° (E) 1,521 4.9 -20.8°
Enters shadow 01:28:59 - 125° (SE) 2,349 5.5 -20.5°
